Location: *
(37.5724°S, 58.0067°E)
Time: 11:00:41
(UTC+00:00)

Cosmos 1943 Rocket - Pass Details

Date: 26 September 2020
Orbit: 814 x 842 km, 71.0° (Epoch: 30 October)

Event Time Altitude Azimuth Distance (km) Brightness Sun altitude
Rises 16:02:26 0° 208° (SSW) 3,424 6.1 -22.9°
Reaches altitude 10° 16:04:57 10° 213° (SSW) 2,485 5.4 -23.4°
Maximum altitude 16:10:27 51° 287° (WNW) 1,061 2.9 -24.4°
Enters shadow 16:13:55 22° 353° (N) 1,768 3.7 -25.0°
